Louisa, VA

10:09 PM EST on December 09, 2019 (GMT -0500)
Louisa County-Freeman

Weather History for KLKU - October, 2019

Change the Weather History Date:

Wednesday, October 23, 2019

  Actual Average (KOMH) Record (KOMH)
Temperature  
Mean Temperature 54 °F -  
Max Temperature 66 °F 67 °F 84 °F (1979)
Min Temperature 39 °F 40 °F 26 °F (1974)
Degree Days  
Heating Degree Days 12    
Growing Degree Days 4 (Base 50)    
Moisture  
Dew Point 46 °F    
Average Humidity 84    
Maximum Humidity 100    
Minimum Humidity 35    
Precipitation  
Precipitation 0.01 in - - ()
Sea Level Pressure  
Sea Level Pressure 30.10 in    
Wind  
Wind Speed 4 mph ()    
Max Wind Speed 10 mph    
Max Gust Speed -    
Visibility 7.4 miles    
Events Fog    
Averages and records for this station are not official NWS values.
T = Trace of Precipitation, MM = Missing Value Source: Averaged Metar Reports

Daily Weather History Graph

Daily Weather History Graph

Search for Another Location

Airport or City:

Astronomy

Oct. 23, 2019 Rise Set
Actual Time 7:28 AM EDT 6:23 PM EDT
Civil Twilight 7:01 AM EDT 6:50 PM EDT
Nautical Twilight 6:30 AM EDT 7:21 PM EDT
Astronomical Twilight 5:59 AM EDT 7:51 PM EDT
Moon 1:51 AM EDT (10/23) 4:06 PM EDT (10/23)
Length of Visible Light 11h 49m
Length of Day
10h 55m
Waning Crescent, 27% of the Moon is Illuminated
Oct 23
Waning Crescent
Oct 27
New
Nov 4
First Quarter
Nov 12
Full
Nov 19
Last Quarter

Hourly Weather History & Observations

Time (EDT) Temp. Windchill Dew Point Humidity Pressure Visibility Wind Dir Wind Speed Gust Speed Precip Events Conditions
12:15 AM 55.8 °F - 55.6 °F 99% 29.93 in 0.2 mi Calm Calm - N/A Fog Fog
12:35 AM 55.0 °F - 54.9 °F 99% 29.93 in 0.2 mi SW 3.5 mph - N/A Fog Fog
12:55 AM 54.9 °F - 54.9 °F 100% 29.93 in 0.2 mi WSW 4.6 mph - N/A Fog Fog
1:15 AM 54.7 °F - 54.7 °F 100% 29.93 in 0.2 mi West 3.5 mph - N/A Fog Fog
1:35 AM 54.5 °F - 54.5 °F 100% 29.94 in 0.2 mi West 5.8 mph - N/A Fog Fog
1:55 AM 54.3 °F - 54.3 °F 100% 29.94 in 0.2 mi West 4.6 mph - N/A Fog Fog
2:15 AM 54.1 °F - 54.1 °F 100% 29.95 in 0.2 mi WSW 3.5 mph - N/A Fog Fog
2:35 AM 53.6 °F - 53.6 °F 100% 29.96 in 0.5 mi West 5.8 mph - N/A Fog Fog
2:55 AM 53.2 °F - 53.2 °F 100% 29.97 in 0.5 mi West 5.8 mph - N/A Fog Fog
3:15 AM 53.1 °F - 53.1 °F 100% 29.97 in 0.5 mi West 5.8 mph - N/A Fog Fog
3:55 AM 52.3 °F - 52.3 °F 100% 29.98 in 1.0 mi WSW 6.9 mph - N/A   Overcast
4:15 AM 51.6 °F - 51.6 °F 100% 29.98 in 2.0 mi WSW 5.8 mph - N/A   Overcast
4:55 AM 50.2 °F - 50.2 °F 100% 30.00 in 10.0 mi WSW 4.6 mph - N/A   Clear
5:15 AM 49.6 °F - 49.6 °F 100% 30.01 in 10.0 mi WSW 4.6 mph - N/A   Clear
5:35 AM 49.3 °F - 49.1 °F 99% 30.02 in 10.0 mi WSW 4.6 mph - N/A   Clear
5:55 AM 48.4 °F - 48.0 °F 99% 30.03 in 10.0 mi WSW 3.5 mph - 0.01 in   Clear
6:15 AM 48.0 °F - 47.7 °F 99% 30.03 in 10.0 mi Calm Calm - N/A   Clear
6:35 AM 45.9 °F 43.6 °F 45.7 °F 99% 30.04 in 1.2 mi WSW 4.6 mph - N/A   Mist
7:15 AM 46.9 °F - 46.6 °F 99% 30.06 in 10.0 mi WSW 3.5 mph - N/A   Clear
7:35 AM 45.1 °F 42.8 °F 45.0 °F 99% 30.06 in 0.5 mi WSW 4.6 mph - N/A Fog Fog
7:55 AM 45.7 °F 44.4 °F 45.7 °F 100% 30.07 in 10.0 mi WSW 3.5 mph - N/A   Clear
8:15 AM 47.8 °F - 47.5 °F 99% 30.08 in 10.0 mi WSW 4.6 mph - N/A   Clear
8:35 AM 49.3 °F - 47.8 °F 95% 30.09 in 10.0 mi WSW 3.5 mph - N/A   Clear
9:15 AM 51.3 °F - 48.0 °F 89% 30.11 in 10.0 mi WSW 6.9 mph - N/A   Clear
9:35 AM 53.1 °F - 49.1 °F 86% 30.12 in 10.0 mi West 3.5 mph - N/A   Clear
10:55 AM 60.4 °F - 46.2 °F 59% 30.14 in 10.0 mi West 6.9 mph - N/A   Unknown
11:15 AM 60.8 °F - 44.8 °F 56% 30.13 in 10.0 mi West 5.8 mph - N/A   Clear
11:35 AM 61.9 °F - 41.9 °F 48% 30.13 in 10.0 mi West 10.4 mph - N/A   Clear
11:55 AM 62.6 °F - 42.1 °F 47% 30.13 in 10.0 mi West 9.2 mph - N/A   Clear
12:35 PM 62.6 °F - 40.6 °F 45% 30.14 in 10.0 mi SSW 4.6 mph - N/A   Clear
12:55 PM 64.2 °F - 41.2 °F 43% 30.14 in 10.0 mi West 9.2 mph - N/A   Clear
1:15 PM 64.9 °F - 42.1 °F 43% 30.13 in 10.0 mi West 5.8 mph - N/A   Clear
1:35 PM 64.2 °F - 41.2 °F 43% 30.13 in 10.0 mi West 5.8 mph - N/A   Clear
1:55 PM 64.9 °F - 39.0 °F 39% 30.13 in 10.0 mi NW 9.2 mph - N/A   Clear
2:15 PM 65.3 °F - 38.5 °F 37% 30.12 in 10.0 mi South 4.6 mph - N/A   Clear
2:35 PM 66.0 °F - 37.2 °F 35% 30.13 in 10.0 mi West 6.9 mph - N/A   Clear
2:55 PM 65.3 °F - 37.8 °F 36% 30.13 in 10.0 mi West 8.1 mph - N/A   Clear
3:15 PM 66.4 °F - 38.1 °F 35% 30.13 in 10.0 mi West 5.8 mph - N/A   Clear
7:15 PM 45.9 °F - 44.2 °F 94% 30.21 in 10.0 mi Calm Calm - N/A   Clear
7:35 PM 45.1 °F 43.7 °F 44.1 °F 96% 30.21 in 10.0 mi South 3.5 mph - N/A   Clear
7:55 PM 44.1 °F 42.5 °F 43.3 °F 97% 30.22 in 10.0 mi South 3.5 mph - N/A   Clear
8:15 PM 43.5 °F - 42.8 °F 97% 30.23 in 10.0 mi Calm Calm - N/A   Clear
8:55 PM 42.4 °F - 41.2 °F 95% 30.24 in 10.0 mi Calm Calm - N/A   Clear
9:15 PM 42.8 °F 41.1 °F 42.1 °F 97% 30.25 in 10.0 mi South 3.5 mph - N/A   Clear
9:35 PM 42.6 °F - 41.9 °F 97% 30.25 in 10.0 mi Calm Calm - N/A   Clear
10:15 PM 41.5 °F 39.6 °F 41.0 °F 98% 30.26 in 10.0 mi West 3.5 mph - N/A   Clear
10:35 PM 43.2 °F 40.5 °F 41.5 °F 94% 30.26 in 10.0 mi NW 4.6 mph - N/A   Clear
10:55 PM 41.4 °F - 40.1 °F 95% 30.26 in 10.0 mi Calm Calm - N/A   Clear
11:15 PM 41.0 °F - 39.2 °F 93% 30.26 in 10.0 mi Calm Calm - N/A   Clear
11:55 PM 39.6 °F - 39.2 °F 99% 30.26 in 10.0 mi Calm Calm - N/A   Clear